User: anonymous   Login
Location: Unspecified
(33.6682°S, 0.0000°E)
Time: 11:39:22
(UTC+00:00)
Language:

Tiros 1 despin weight - Orbit

View from above orbital plane
View from above orbital plane
View from above satellite
View from above satellite

Ground track
Ground track

The orbit data is extracted from the following two-line orbital elements,

1   115U 60002D   20294.99424762 +.00000073 +00000-0 +35803-4 0  9998
2   115 048.1680 030.5347 0033889 082.2128 278.2630 14.83631777210459
Epoch (UTC): 20 October 2020 23:51:42
Eccentricity: 0.0033889
inclination: 48.1680°
perigee height: 594 km
apogee height: 641 km
right ascension of ascending node: 30.5347°
argument of perigee: 82.2128°
revolutions per day: 14.83631777
mean anomaly at epoch: 278.2630°
orbit number at epoch: 21045

The dashed part of the orbit path shows where the satellite is in the earth's shadow,  

DLR